Location: Mount Lyell
(37.7394°N, 119.2715°W)
Time: 11:18:25
(UTC+00:00)

Daily predictions for brighter satellites

Satellite Brightness Start Highest point End
(mag) Time Altitude Azimuth Time Altitude Azimuth Time Altitude Azimuth
Milstar 3 Cent rocket 3.6 12:05:31 29° SSE 12:05:31 29° SSE 12:09:58 10° ESE
Cosmos 2333 Rocket 2.7 12:13:29 38° SSE 12:15:24 57° ESE 12:21:02 10° NNE
SL-16 R/B 4.2 12:27:49 16° N 12:27:49 16° N 12:29:00 10° N
Lacrosse 5 rocket 3.9 12:25:22 10° SSE 12:28:23 19° ESE 12:31:28 10° ENE
BREEZE-M DEB (TANK) 3.4 12:28:34 52° N 12:29:24 57° NE 12:41:23 10° ESE
Cosmos 1844 Rocket 2.9 12:29:01 52° N 12:30:14 68° ENE 12:35:50 10° SSE
IRS-P3 Rocket 4.5 12:26:45 10° NNE 12:31:59 84° ESE 12:37:13 10° SSW
Cosmos 1464 Rocket 4.2 12:26:31 10° S 12:32:35 67° E 12:38:44 10° NNE
COSMOS 2455 3.7 12:30:25 27° N 12:33:21 47° ENE 12:39:05 10° SE
ATLAS 3B R/B 2.9 12:34:12 54° NW 12:34:12 54° NW 12:41:09 10° NNE
H-2A R/B 2.3 12:33:03 10° NNE 12:37:56 64° ESE 12:42:51 10° S
CZ-2D R/B 4.3 12:39:48 10° NNE 12:43:35 46° E 12:47:20 10° S
USA 281 3.1 12:39:36 10° NNE 12:46:13 89° SE 12:52:46 10° SSW
Cosmos 2333 4.1 12:43:22 10° SSW 12:49:05 87° WNW 12:54:54 10° NNE
USA 215 3.3 12:44:37 10° NE 12:51:09 79° SE 12:57:03 13° SW
IRS-1C 4.0 12:46:27 10° NNE 12:51:48 81° WNW 12:57:07 10° SSW
Timation 2 Rocket 4.0 12:54:38 36° NW 12:57:28 71° WSW 13:04:05 10° SSE
COSMO-SKYMED 1 3.3 12:53:28 10° SSE 12:57:39 51° ENE 13:01:40 11° N
Cosmos 2056 Rocket 3.9 12:56:04 17° N 13:00:12 64° ENE 13:05:26 10° SSE
Okean 1-7 Rocket 3.4 12:56:56 10° S 13:01:19 79° W 13:05:42 10° N
Cosmos 2034 Rocket 4.1 12:55:19 10° S 13:01:39 78° E 13:07:59 10° N
Cosmos 1812 2.9 13:00:46 39° NNE 13:01:56 66° E 13:05:33 10° SSE
Cosmos 1513 Rocket 4.5 12:56:31 10° SSW 13:02:33 54° W 13:08:32 10° N
Gbstr 26 Del rocket 3.2 13:02:08 54° WSW 13:02:36 56° SW 13:07:48 10° SE
ERS-1 4.3 13:03:41 10° N 13:08:36 67° WNW 13:13:29 10° SSW
Helios 1A 2.9 13:06:02 10° S 13:10:04 61° WSW 13:10:47 51° NW
CZ-3 R/B 3.3 12:55:50 16° WSW 13:12:02 50° S 13:18:26 10° ESE
SL-19 R/B 4.1 13:09:09 10° N 13:14:32 61° WNW 13:19:42 10° SSW
Chandra Rocket (1) 4.0 13:14:11 12° SSW 13:16:01 16° S 13:20:01 10° SE
Cosmos 1680 Rocket 4.1 13:17:48 34° WNW 13:17:49 34° WNW 13:22:37 10° N
PSLV R/B 4.3 13:13:36 10° NNE 13:17:50 55° E 13:22:01 10° S
Cosmos 1782 3.7 13:14:04 10° N 13:17:50 47° E 13:21:34 10° SSE
ARIANE 5 R/B 2.7 13:13:39 10° N 13:18:38 48° WNW 13:23:38 10° SW
Cosmos 192 4.4 13:20:36 27° NW 13:23:01 54° WSW 13:27:49 10° S
Cosmos 1825 Rocket 4.0 13:18:47 10° S 13:23:06 63° E 13:27:26 10° NNE
SJ-12 3.7 13:19:12 10° N 13:23:14 84° WNW 13:27:15 10° SSW
IRS-P3 4.2 13:18:18 10° N 13:23:26 51° WNW 13:28:33 10° SW
Cosmos 1812 Rocket 3.5 13:19:18 10° N 13:23:45 82° W 13:28:12 10° S
Cosmos 1371 Rocket 3.9 13:19:37 16° NNW 13:24:00 75° WSW 13:29:19 10° S
Cosmos 2360 Rocket 2.9 13:23:51 29° WNW 13:24:30 30° WNW 13:29:26 10° N
BREEZE-M R/B 4.2 13:22:26 20° NW 13:27:39 54° NNE 13:31:46 10° ESE
Cosmos 2219 Rocket 2.2 13:23:18 10° SW 13:28:50 56° WNW 13:34:25 10° NNE
Cosmos 1758 Rocket 3.8 13:26:46 10° SSW 13:30:50 41° W 13:34:56 10° N
Cosmos 1844 4.1 13:28:47 24° NW 13:31:39 41° WSW 13:36:48 10° S
BlueWalker 3 3.2 13:29:57 19° NNW 13:32:08 34° NE 13:35:38 10° ESE
ERS-2 2.1 13:32:15 10° NNE 13:35:09 58° ESE 13:38:02 10° S
Cosmos 2026 Rocket 4.3 13:29:31 10° N 13:35:55 72° E 13:42:12 10° SSE
Geosat 4.4 13:31:43 10° N 13:36:23 39° WNW 13:41:01 10° SW
USA 229 DEB 3.5 13:32:41 10° SW 13:38:44 64° NW 13:45:19 10° NNE
USA 229 3.4 13:32:44 10° SW 13:38:47 65° NW 13:45:23 10° NNE
Spot 4 Rocket 3.9 13:34:22 10° N 13:39:31 79° WNW 13:44:39 10° SSW
FengYun 1-2 T 4.2 13:34:49 10° N 13:40:21 62° WNW 13:45:49 10° SSW
Cosmos 2195 Rocket 4.4 13:35:40 10° N 13:41:51 85° W 13:47:58 10° S
Cosmos 1048 Rocket 3.9 13:38:07 10° SSW 13:43:18 85° WNW 13:48:27 10° NNE
Cosmos 2322 Rocket 3.7 13:44:10 16° NW 13:44:10 16° NW 13:47:11 10° NNW
Cosmos 1420 Rocket 4.3 13:39:32 14° NW 13:43:51 45° WSW 13:48:51 10° S
SKYMED 2 3.9 13:41:36 10° S 13:45:42 42° W 13:49:51 10° NNW
Cosmos 1092 Rocket 4.0 13:42:26 10° N 13:48:40 87° W 13:54:56 10° S
Cosmos 1624 Rocket 4.3 13:44:15 12° NNW 13:48:50 44° WSW 13:53:45 10° S
NOSS 3-1 (A) 4.3 13:47:54 18° WNW 13:49:45 22° NW 13:54:10 10° N
Nadezhda 4 Rocket 4.3 13:46:30 10° NNW 13:52:11 41° W 13:57:54 10° SSW
Cosmos 1634 Rocket 3.9 13:47:14 10° S 13:53:24 81° W 13:59:38 10° N
Cosmos 2285 Rocket 4.4 13:51:11 10° S 13:57:25 68° ESE 14:03:45 10° NNE
COSMOS 2428 2.7 13:53:44 10° SSW 13:59:20 62° WNW 14:05:00 10° NNE
Cosmos 2333 Rocket 3.4 13:55:50 10° WSW 14:00:04 21° NW 14:04:18 10° N
SMAP 3.9 13:57:26 10° NNE 14:02:01 56° E 14:06:34 10° S
Cosmos 1933 3.5 14:01:30 10° NNW 14:05:18 46° W 14:09:04 10° SSW
Cosmos 1980 4.4 14:00:01 10° S 14:05:33 59° ESE 14:11:07 10° NNE
SJ-7 4.3 14:01:41 10° N 14:05:47 79° WNW 14:09:51 10° SSW
Lacrosse 5 rocket 1.7 14:02:36 10° WSW 14:06:40 47° NW 14:10:53 10° NNE
Cosmos 1076 Rocket 4.0 14:03:43 10° S 14:07:55 64° E 14:12:12 10° NNE
Cosmos 1544 2.7 14:04:47 10° S 14:07:58 88° ESE 14:11:11 10° N
NOSS 0 Rocket 4.1 14:01:56 10° SSW 14:08:10 86° ESE 14:14:27 10° NNE
SL-08 R/B 4.1 14:07:11 10° SSW 14:11:23 32° W 14:15:34 10° NW
Cosmos 1515 3.5 14:07:55 10° N 14:11:33 90° E 14:15:09 10° S
Cosmos 1844 Rocket 4.3 14:10:44 11° WNW 14:13:26 14° W 14:16:22 10° SW
Cosmos 1953 Rocket 3.7 14:09:32 10° SSW 14:13:53 55° W 14:18:17 10° N
IKONOS-2 4.5 14:10:06 10° S 14:14:13 67° WSW 14:18:23 10° NNW
SJ-11-01 4.4 14:10:24 10° N 14:14:56 53° WNW 14:19:29 10° SSW
CZ-2D R/B 3.6 14:13:15 10° N 14:16:40 38° WNW 14:20:04 10° SW
H-2A R/B 3.5 14:14:22 10° NW 14:16:46 14° WNW 14:19:10 10° W
COSMOS 2455 3.9 14:14:06 10° NW 14:18:55 26° WSW 14:23:43 10° SSW
CORIOLIS 4.4 14:14:43 10° NNE 14:20:09 78° ESE 14:25:35 10° S
Cosmos 2279 Rocket 4.0 14:15:23 10° SSW 14:21:37 75° W 14:27:54 10° N
Cosmos 2221 2.7 14:19:32 10° NNW 14:23:39 51° W 14:27:45 10° S
Cosmos 1862 3.9 14:21:06 10° SW 14:24:34 32° WNW 14:28:04 10° NNW
ATLAS 3B R/B 4.4 14:22:33 10° WNW 14:26:30 15° NNW 14:30:34 10° N
Cosmos 2278 Rocket 2.8 14:21:32 10° NNW 14:27:08 59° ENE 14:32:41 10° SE
CZ-2C R/B 3.1 14:23:48 10° N 14:27:20 42° WNW 14:30:55 10° SW
SeaSat 1 3.4 14:22:44 10° SE 14:27:26 48° ENE 14:32:09 10° NNW
Cosmos 1110 Rocket 4.1 14:23:23 10° NNW 14:28:43 79° WSW 14:33:59 10° SSE
USA 281 4.5 14:25:46 10° N 14:29:51 18° NW 14:33:56 10° W
Cosmos 1666 2.7 14:26:36 10° S 14:30:07 78° E 14:33:40 10° N
Helios 1B rocket 3.1 14:26:55 10° N 14:30:25 30° WNW 14:33:54 10° SW
Cosmos 2237 Rocket 2.3 14:25:36 10° SSW 14:31:16 88° WNW 14:36:58 10° NNE
